Weather History for Luxor, Egypt

Change the Weather History Date:

Monday, February 18, 2013

  Actual Average Record
Temperature  
Mean Temperature 64 °F -  
Max Temperature 76 °F 78 °F 91 °F (2003)
Min Temperature 51 °F 51 °F 44 °F (2004)
Degree Days  
Heating Degree Days 2    
Growing Degree Days 14 (Base 50)    
Moisture  
Dew Point 41 °F    
Average Humidity 45    
Maximum Humidity 62    
Minimum Humidity 20    
Precipitation  
Precipitation 0.00 in 0.00 in - ()
Sea Level Pressure  
Sea Level Pressure 29.95 in    
Wind  
Wind Speed 2 mph ()    
Max Wind Speed 7 mph    
Max Gust Speed -    
Visibility 6.0 miles    
Events      
Averages and records for this station are not official NWS values.
T = Trace of Precipitation, MM = Missing Value Source: Averaged Metar Reports

Daily Weather History Graph

Daily Weather History Graph

Search for Another Location

Airport:

Trip Planner

Search our weather history database for the weather conditions in past years. The results will help you decide how hot, cold, wet, or windy it might be!

Date:

Astronomy

Feb. 18, 2013 Rise Set
Actual Time 6:21 AM EET 5:44 PM EET
Civil Twilight 5:58 AM EET 6:07 PM EET
Nautical Twilight 5:31 AM EET 6:34 PM EET
Astronomical Twilight 5:04 AM EET 7:01 PM EET
Moon 11:31 AM EET (2/18) 12:28 AM EET (2/18)
Length of Visible Light 12h 09m
Length of Day
11h 22m
First Quarter, 55% of the Moon is Illuminated
Feb 18
First Quarter
Feb 25
Full
Mar 4
Last Quarter
Mar 11
New
Mar 19
First Quarter

Hourly Weather History & Observations

Time (EET) Temp. Dew Point Humidity Pressure Visibility Wind Dir Wind Speed Gust Speed Precip Events Conditions
12:00 AM 59.0 °F 42.8 °F 55% 29.95 in - South 2.3 mph - N/A   Clear
1:00 AM 57.2 °F 41.0 °F 55% 29.92 in - South 1.2 mph - N/A   Clear
2:00 AM 56 °F 39 °F 42% 29.94 in 6 mi SSE 2.3 mph - -  
2:00 AM 55.4 °F 39.2 °F 54% 29.92 in - SSE 2.3 mph - N/A   Clear
3:00 AM 55.4 °F 39.2 °F 54% 29.92 in - Calm Calm - N/A   Clear
4:00 AM 55.4 °F 41.0 °F 58% 29.92 in - SSW 2.3 mph - N/A   Clear
5:00 AM 55.4 °F 41.0 °F 58% 29.92 in - South 1.2 mph - N/A   Clear
6:00 AM 53.6 °F 41.0 °F 62% 29.95 in - Calm Calm - N/A   Clear
7:00 AM 53.6 °F 41.0 °F 62% 29.95 in - Calm Calm - N/A   Clear
8:00 AM 56 °F 42 °F 47% 29.98 in 6 mi Calm Calm - -   Mostly Cloudy
8:00 AM 55.4 °F 41.0 °F 58% 29.98 in - Calm Calm - N/A   Clear
9:00 AM 60.8 °F 42.8 °F 52% 29.98 in - Calm Calm - N/A   Clear
10:00 AM 64.4 °F 44.6 °F 49% 29.98 in - WSW 2.3 mph - N/A   Clear
11:00 AM 69.8 °F 39.2 °F 33% 29.98 in - NNW 5.8 mph - N/A   Clear
12:00 PM 69.8 °F 37.4 °F 31% 29.95 in - NW 6.9 mph - N/A   Clear
1:00 PM 71.6 °F 39.2 °F 31% 29.92 in - North 5.8 mph - N/A   Clear
2:00 PM 72 °F 39 °F 20% 29.93 in 6 mi NNW 5.8 mph - -   Mostly Cloudy
2:00 PM 73.4 °F 39.2 °F 29% 29.92 in - NNW 5.8 mph - N/A   Clear
3:00 PM 75.2 °F 41.0 °F 29% 29.92 in - NW 6.9 mph - N/A   Clear
4:00 PM 77.0 °F 39.2 °F 26% 29.92 in - NW 5.8 mph - N/A   Clear
5:00 PM 73.4 °F 41.0 °F 31% 29.92 in - NW 4.6 mph - N/A   Clear
6:00 PM 68.0 °F 39.2 °F 35% 29.92 in - NW 4.6 mph - N/A   Clear
7:00 PM 64.4 °F 42.8 °F 45% 29.95 in - West 6.9 mph - N/A   Clear
8:00 PM 63 °F 42 °F 35% 29.97 in 6 mi West 3.5 mph - -  
8:00 PM 62.6 °F 42.8 °F 48% 29.95 in - West 3.5 mph - N/A   Clear
9:00 PM 60.8 °F 42.8 °F 52% 29.98 in - SW 4.6 mph - N/A   Clear
10:00 PM 59.0 °F 41.0 °F 51% 29.98 in - SW 2.3 mph - N/A   Clear
11:00 PM 59.0 °F 41.0 °F 51% 29.98 in - SE 4.6 mph - N/A   Clear